Time,TemperatureF,DewpointF,PressureIn,WindDirection,WindDirectionDegrees,WindSpeedMPH,WindSpeedGustMPH,Humidity,HourlyPrecipIn,Conditions,Clouds,dailyrainin,SoftwareType,DateUTC
2013-03-10 00:09:00,37.9,36.0,30.31,SW,215,1.0,2.0,91,0.00,,,0.00,weatherlink.com 1.10,2013-03-10 08:09:00,
2013-03-10 00:24:00,37.2,35.0,30.31,SW,215,0.0,1.0,91,0.00,,,0.00,weatherlink.com 1.10,2013-03-10 08:24:00,
2013-03-10 00:39:00,37.6,36.0,30.31,SW,215,0.0,2.0,92,0.00,,,0.00,weatherlink.com 1.10,2013-03-10 08:39:00,
2013-03-10 00:54:00,37.2,35.0,30.31,SW,215,0.0,1.0,91,0.00,,,0.00,weatherlink.com 1.10,2013-03-10 08:54:00,
2013-03-10 01:09:00,37.4,36.0,30.31,SW,215,0.0,1.0,93,0.00,,,0.00,weatherlink.com 1.10,2013-03-10 09:09:00,
2013-03-10 01:24:00,37.0,35.0,30.32,SW,215,0.0,1.0,92,0.00,,,0.00,weatherlink.com 1.10,2013-03-10 09:24:00,
2013-03-10 01:39:00,36.3,34.0,30.32,SW,215,0.0,0.0,92,0.00,,,0.00,weatherlink.com 1.10,2013-03-10 09:39:00,
2013-03-10 01:54:00,35.9,34.0,30.32,West,266,0.0,2.0,91,0.00,,,0.00,weatherlink.com 1.10,2013-03-10 09:54:00,
2013-03-10 03:09:00,35.5,33.0,30.32,West,266,0.0,0.0,92,0.00,,,0.00,weatherlink.com 1.10,2013-03-10 10:09:00,
2013-03-10 03:24:00,35.1,33.0,30.32,West,266,1.0,1.0,92,0.00,,,0.00,weatherlink.com 1.10,2013-03-10 10:24:00,
2013-03-10 03:39:00,35.2,33.0,30.31,West,266,0.0,2.0,92,0.00,,,0.00,weatherlink.com 1.10,2013-03-10 10:39:00,
2013-03-10 03:54:00,34.2,32.0,30.31,West,266,0.0,2.0,92,0.00,,,0.00,weatherlink.com 1.10,2013-03-10 10:54:00,
2013-03-10 04:09:00,33.8,32.0,30.31,West,266,0.0,0.0,92,0.00,,,0.00,weatherlink.com 1.10,2013-03-10 11:09:00,
2013-03-10 04:24:00,34.0,32.0,30.30,West,266,1.0,1.0,92,0.00,,,0.00,weatherlink.com 1.10,2013-03-10 11:24:00,
2013-03-10 04:39:00,33.0,31.0,30.30,West,266,0.0,1.0,92,0.00,,,0.00,weatherlink.com 1.10,2013-03-10 11:39:00,
2013-03-10 04:54:00,33.5,32.0,30.31,West,266,0.0,2.0,93,0.00,,,0.00,weatherlink.com 1.10,2013-03-10 11:54:00,
2013-03-10 05:09:00,33.3,32.0,30.31,West,266,1.0,1.0,93,0.00,,,0.00,weatherlink.com 1.10,2013-03-10 12:09:00,
2013-03-10 05:24:00,34.2,32.0,30.30,South,182,2.0,3.0,93,0.00,,,0.00,weatherlink.com 1.10,2013-03-10 12:24:00,
2013-03-10 05:39:00,33.9,32.0,30.31,WNW,291,2.0,3.0,93,0.00,,,0.00,weatherlink.com 1.10,2013-03-10 12:39:00,
2013-03-10 05:54:00,33.0,31.0,30.31,WSW,257,0.0,2.0,93,0.00,,,0.00,weatherlink.com 1.10,2013-03-10 12:54:00,
2013-03-10 06:09:00,32.3,30.0,30.31,WSW,257,0.0,1.0,92,0.00,,,0.00,weatherlink.com 1.10,2013-03-10 13:09:00,
2013-03-10 06:24:00,33.0,31.0,30.31,WSW,256,0.0,2.0,93,0.00,,,0.00,weatherlink.com 1.10,2013-03-10 13:24:00,
2013-03-10 06:39:00,32.4,31.0,30.32,WSW,257,0.0,2.0,93,0.00,,,0.00,weatherlink.com 1.10,2013-03-10 13:39:00,
2013-03-10 06:55:00,31.9,30.0,30.32,WSW,257,0.0,0.0,93,0.00,,,0.00,weatherlink.com 1.10,2013-03-10 13:55:00,
2013-03-10 07:10:00,32.0,30.0,30.32,WSW,256,0.0,2.0,93,0.00,,,0.00,weatherlink.com 1.10,2013-03-10 14:10:00,
2013-03-10 07:25:00,31.9,30.0,30.32,WSW,256,0.0,1.0,93,0.00,,,0.00,weatherlink.com 1.10,2013-03-10 14:25:00,
2013-03-10 07:40:00,30.9,29.0,30.32,WSW,256,0.0,2.0,92,0.00,,,0.00,weatherlink.com 1.10,2013-03-10 14:40:00,
2013-03-10 07:55:00,31.5,30.0,30.33,WSW,257,0.0,0.0,93,0.00,,,0.00,weatherlink.com 1.10,2013-03-10 14:55:00,
2013-03-10 08:10:00,31.9,30.0,30.33,WSW,256,0.0,0.0,93,0.00,,,0.00,weatherlink.com 1.10,2013-03-10 15:10:00,
2013-03-10 08:25:00,33.4,32.0,30.34,WSW,256,0.0,1.0,93,0.00,,,0.00,weatherlink.com 1.10,2013-03-10 15:25:00,
2013-03-10 08:40:00,35.4,34.0,30.34,WSW,257,0.0,1.0,94,0.00,,,0.00,weatherlink.com 1.10,2013-03-10 15:40:00,
2013-03-10 08:55:00,38.7,37.0,30.34,WSW,257,0.0,1.0,94,0.00,,,0.00,weatherlink.com 1.10,2013-03-10 15:55:00,
2013-03-10 09:10:00,39.8,38.0,30.34,WSW,257,0.0,2.0,94,0.00,,,0.00,weatherlink.com 1.10,2013-03-10 16:10:00,
2013-03-10 09:25:00,42.3,41.0,30.34,WNW,288,0.0,1.0,94,0.00,,,0.00,weatherlink.com 1.10,2013-03-10 16:25:00,
2013-03-10 09:40:00,45.6,43.0,30.34,WNW,288,0.0,1.0,90,0.00,,,0.00,weatherlink.com 1.10,2013-03-10 16:40:00,
2013-03-10 09:55:00,48.4,43.0,30.33,WNW,288,0.0,1.0,82,0.00,,,0.00,weatherlink.com 1.10,2013-03-10 16:55:00,
2013-03-10 10:10:00,50.8,42.0,30.34,WNW,288,0.0,2.0,73,0.00,,,0.00,weatherlink.com 1.10,2013-03-10 17:10:00,
2013-03-10 10:25:00,51.6,42.0,30.34,NW,321,1.0,3.0,71,0.00,,,0.00,weatherlink.com 1.10,2013-03-10 17:25:00,
2013-03-10 10:40:00,52.0,44.0,30.34,NW,321,0.0,1.0,73,0.00,,,0.00,weatherlink.com 1.10,2013-03-10 17:40:00,
2013-03-10 10:55:00,54.6,45.0,30.33,NW,321,1.0,2.0,70,0.00,,,0.00,weatherlink.com 1.10,2013-03-10 17:55:00,
2013-03-10 11:10:00,56.2,45.0,30.33,East,88,0.0,3.0,66,0.00,,,0.00,weatherlink.com 1.10,2013-03-10 18:10:00,
2013-03-10 11:25:00,57.3,46.0,30.33,NE,40,0.0,3.0,66,0.00,,,0.00,weatherlink.com 1.10,2013-03-10 18:25:00,
2013-03-10 11:40:00,59.0,47.0,30.32,East,81,2.0,3.0,64,0.00,,,0.00,weatherlink.com 1.10,2013-03-10 18:40:00,
2013-03-10 11:56:00,60.4,46.0,30.32,South,175,2.0,4.0,60,0.00,,,0.00,weatherlink.com 1.10,2013-03-10 18:56:00,
2013-03-10 12:11:00,61.6,44.0,30.31,SE,125,3.0,5.0,52,0.00,,,0.00,weatherlink.com 1.10,2013-03-10 19:11:00,
2013-03-10 12:26:00,63.2,44.0,30.31,SE,141,4.0,6.0,50,0.00,,,0.00,weatherlink.com 1.10,2013-03-10 19:26:00,
2013-03-10 13:26:00,66.9,47.0,30.28,SSE,150,5.0,9.0,49,0.00,,,0.00,weatherlink.com 1.10,2013-03-10 20:26:00,
2013-03-10 13:56:00,67.8,48.0,30.27,ESE,115,7.0,9.0,50,0.01,,,0.01,weatherlink.com 1.10,2013-03-10 20:56:00,
2013-03-10 14:11:00,68.0,46.0,30.27,SSE,163,4.0,9.0,46,0.01,,,0.01,weatherlink.com 1.10,2013-03-10 21:11:00,
2013-03-10 14:41:00,70.6,34.0,30.26,SW,228,1.0,7.0,26,0.00,,,0.01,weatherlink.com 1.10,2013-03-10 21:41:00,
2013-03-10 14:56:00,70.9,36.0,30.26,West,267,3.0,8.0,28,0.00,,,0.01,weatherlink.com 1.10,2013-03-10 21:56:00,
2013-03-10 15:26:00,70.5,35.0,30.25,SSW,198,4.0,10.0,27,0.00,,,0.01,weatherlink.com 1.10,2013-03-10 22:26:00,
2013-03-10 15:56:00,70.7,34.0,30.25,WNW,293,3.0,5.0,26,0.00,,,0.01,weatherlink.com 1.10,2013-03-10 22:56:00,
2013-03-10 16:11:00,70.1,32.0,30.25,NNW,331,0.0,8.0,24,0.00,,,0.01,weatherlink.com 1.10,2013-03-10 23:11:00,
2013-03-10 16:26:00,70.0,33.0,30.25,West,271,2.0,7.0,26,0.00,,,0.01,weatherlink.com 1.10,2013-03-10 23:26:00,
2013-03-10 16:41:00,70.5,32.0,30.24,NW,315,3.0,5.0,24,0.00,,,0.01,weatherlink.com 1.10,2013-03-10 23:41:00,
2013-03-10 16:56:00,69.9,33.0,30.24,West,267,2.0,6.0,26,0.00,,,0.01,weatherlink.com 1.10,2013-03-10 23:56:00,
2013-03-10 17:11:00,70.6,34.0,30.23,South,173,2.0,8.0,26,0.00,,,0.01,weatherlink.com 1.10,2013-03-11 00:11:00,
2013-03-10 17:26:00,70.0,33.0,30.23,NNW,327,0.0,6.0,25,0.00,,,0.01,weatherlink.com 1.10,2013-03-11 00:26:00,
2013-03-10 17:56:00,66.9,31.0,30.23,SW,232,1.0,3.0,26,0.00,,,0.01,weatherlink.com 1.10,2013-03-11 00:56:00,
2013-03-10 18:12:00,65.9,31.0,30.23,West,269,0.0,4.0,27,0.00,,,0.01,weatherlink.com 1.10,2013-03-11 01:12:00,
2013-03-10 18:26:00,64.9,33.0,30.24,WSW,254,0.0,3.0,30,0.00,,,0.01,weatherlink.com 1.10,2013-03-11 01:26:00,
2013-03-10 18:41:00,63.4,34.0,30.24,SSW,198,0.0,3.0,33,0.00,,,0.01,weatherlink.com 1.10,2013-03-11 01:41:00,
2013-03-10 18:56:00,61.8,38.0,30.24,South,186,1.0,3.0,41,0.00,,,0.01,weatherlink.com 1.10,2013-03-11 01:56:00,
2013-03-10 19:11:00,56.9,45.0,30.24,SE,140,3.0,6.0,64,0.00,,,0.01,weatherlink.com 1.10,2013-03-11 02:11:00,
2013-03-10 19:26:00,54.8,44.0,30.25,SE,144,0.0,3.0,67,0.00,,,0.01,weatherlink.com 1.10,2013-03-11 02:26:00,
2013-03-10 19:42:00,53.6,44.0,30.25,SE,128,1.0,4.0,69,0.00,,,0.01,weatherlink.com 1.10,2013-03-11 02:42:00,
2013-03-10 19:56:00,51.7,44.0,30.25,SE,133,3.0,4.0,76,0.00,,,0.01,weatherlink.com 1.10,2013-03-11 02:56:00,
2013-03-10 20:12:00,50.0,44.0,30.25,SE,135,0.0,3.0,80,0.00,,,0.01,weatherlink.com 1.10,2013-03-11 03:12:00,
2013-03-10 20:26:00,49.0,43.0,30.26,SE,135,0.0,1.0,81,0.00,,,0.01,weatherlink.com 1.10,2013-03-11 03:26:00,
2013-03-10 20:41:00,47.7,43.0,30.26,SE,135,0.0,0.0,83,0.00,,,0.01,weatherlink.com 1.10,2013-03-11 03:41:00,
2013-03-10 20:57:00,46.8,42.0,30.26,SE,135,0.0,0.0,84,0.00,,,0.01,weatherlink.com 1.10,2013-03-11 03:57:00,
2013-03-10 21:12:00,46.0,42.0,30.26,SE,135,0.0,0.0,86,0.00,,,0.01,weatherlink.com 1.10,2013-03-11 04:12:00,
2013-03-10 21:27:00,45.3,42.0,30.27,SE,135,0.0,1.0,88,0.00,,,0.01,weatherlink.com 1.10,2013-03-11 04:27:00,
2013-03-10 21:42:00,45.1,42.0,30.27,SE,135,1.0,1.0,87,0.00,,,0.01,weatherlink.com 1.10,2013-03-11 04:42:00,
2013-03-10 21:57:00,44.0,41.0,30.27,SE,135,0.0,1.0,88,0.00,,,0.01,weatherlink.com 1.10,2013-03-11 04:57:00,
2013-03-10 22:12:00,43.4,40.0,30.27,SE,135,0.0,0.0,89,0.00,,,0.01,weatherlink.com 1.10,2013-03-11 05:12:00,
2013-03-10 22:27:00,42.9,40.0,30.27,SE,135,0.0,0.0,90,0.00,,,0.01,weatherlink.com 1.10,2013-03-11 05:27:00,
2013-03-10 22:42:00,41.8,39.0,30.27,SE,135,0.0,2.0,89,0.00,,,0.01,weatherlink.com 1.10,2013-03-11 05:42:00,
2013-03-10 22:57:00,41.5,39.0,30.27,SE,135,0.0,0.0,90,0.00,,,0.01,weatherlink.com 1.10,2013-03-11 05:57:00,
2013-03-10 23:12:00,40.9,38.0,30.28,SE,135,0.0,0.0,90,0.00,,,0.01,weatherlink.com 1.10,2013-03-11 06:12:00,
2013-03-10 23:27:00,40.5,38.0,30.27,SE,135,0.0,0.0,91,0.00,,,0.01,weatherlink.com 1.10,2013-03-11 06:27:00,
2013-03-10 23:42:00,40.1,38.0,30.27,SE,135,0.0,0.0,91,0.00,,,0.01,weatherlink.com 1.10,2013-03-11 06:42:00,
2013-03-10 23:57:00,39.6,37.0,30.27,SE,135,0.0,0.0,91,0.00,,,0.01,weatherlink.com 1.10,2013-03-11 06:57:00,